• In Belarus
  • List of Countries
  • For 7 days
  • Water Temperature
  • Satellite Maps
  • Weather Map
  • Weather Widgets
  • user-avatar
    Login

    Hourly Weather Lyss

    Today, 23 September, Sunday

    Time Temperature Precipitation Wind Pressure Humidity
    00:00 +17°C° 0 mm 3 mps 721 mmHg 65%
    01:00 +17°C° 0 mm 3 mps 720 mmHg 65%
    02:00 +17°C° 0 mm 3 mps 720 mmHg 66%
    03:00 +18°C° 0 mm 3 mps 720 mmHg 66%
    04:00 +18°C° 0 mm 3 mps 720 mmHg 68%
    05:00 +18°C° 0 mm 3 mps 720 mmHg 70%
    06:00 +18°C° 0 mm 3 mps 720 mmHg 72%
    07:00 +19°C° 0 mm 3 mps 720 mmHg 71%
    08:00 +20°C° 0 mm 4 mps 720 mmHg 69%
    09:00 +22°C° 0 mm 4 mps 720 mmHg 67%
    10:00 +23°C° 0 mm 4 mps 720 mmHg 64%
    11:00 +25°C° 0 mm 5 mps 719 mmHg 61%
    12:00 +26°C° 0 mm 5 mps 719 mmHg 58%
    13:00 +26°C° 0.1 mm 5 mps 719 mmHg 58%
    14:00 +27°C° 0.1 mm 6 mps 718 mmHg 59%
    15:00 +27°C° 0.1 mm 6 mps 718 mmHg 59%
    16:00 +24°C° 0.4 mm 6 mps 717 mmHg 66%
    17:00 +22°C° 0.4 mm 6 mps 717 mmHg 74%
    18:00 +20°C° 0.4 mm 5 mps 717 mmHg 81%
    19:00 +19°C° 1.2 mm 5 mps 718 mmHg 85%
    20:00 +17°C° 1.2 mm 5 mps 719 mmHg 89%
    21:00 +16°C° 1.2 mm 5 mps 719 mmHg 92%
    22:00 +15°C° 0.7 mm 4 mps 720 mmHg 93%
    23:00 +14°C° 0.7 mm 3 mps 721 mmHg 93%

    Tomorrow, 24 September, Monday

    Time Temperature Precipitation Wind Pressure Humidity
    00:00 +13°C° 0.7 mm 2 mps 722 mmHg 94%
    01:00 +13°C° 0.2 mm 2 mps 722 mmHg 93%
    02:00 +12°C° 0.2 mm 2 mps 723 mmHg 93%
    03:00 +10°C° 0.2 mm 2 mps 723 mmHg 93%
    04:00 +10°C° 0 mm 2 mps 723 mmHg 93%
    05:00 +9°C° 0 mm 2 mps 724 mmHg 94%
    06:00 +9°C° 0 mm 2 mps 724 mmHg 94%
    07:00 +10°C° 0 mm 3 mps 725 mmHg 89%
    08:00 +10°C° 0 mm 3 mps 725 mmHg 84%
    09:00 +11°C° 0 mm 4 mps 725 mmHg 78%
    10:00 +12°C° 0 mm 4 mps 725 mmHg 74%
    11:00 +12°C° 0 mm 4 mps 725 mmHg 69%
    12:00 +13°C° 0 mm 4 mps 725 mmHg 65%
    13:00 +13°C° 0 mm 5 mps 725 mmHg 61%
    14:00 +14°C° 0 mm 5 mps 725 mmHg 58%
    15:00 +14°C° 0 mm 5 mps 726 mmHg 54%
    16:00 +13°C° 0 mm 4 mps 726 mmHg 58%
    17:00 +11°C° 0 mm 4 mps 726 mmHg 63%
    18:00 +10°C° 0 mm 4 mps 726 mmHg 67%
    19:00 +8°C° 0 mm 4 mps 726 mmHg 69%
    20:00 +7°C° 0 mm 4 mps 727 mmHg 70%
    21:00 +8°C° 0 mm 3 mps 727 mmHg 72%
    22:00 +7°C° 0 mm 3 mps 727 mmHg 72%
    23:00 +7°C° 0 mm 3 mps 727 mmHg 72%

    Day after tomorrow, 25 September, Tuesday

    Time Temperature Precipitation Wind Pressure Humidity
    00:00 +7°C° 0 mm 3 mps 727 mmHg 72%
    01:00 +5°C° 0 mm 3 mps 727 mmHg 73%
    02:00 +5°C° 0 mm 3 mps 727 mmHg 75%
    03:00 +5°C° 0 mm 3 mps 726 mmHg 76%
    04:00 +5°C° 0 mm 3 mps 727 mmHg 78%
    05:00 +5°C° 0 mm 3 mps 727 mmHg 79%
    06:00 +5°C° 0 mm 3 mps 727 mmHg 80%
    07:00 +8°C° 0 mm 3 mps 727 mmHg 71%
    08:00 +10°C° 0 mm 4 mps 727 mmHg 63%
    09:00 +12°C° 0 mm 4 mps 727 mmHg 54%
    10:00 +13°C° 0 mm 4 mps 727 mmHg 51%
    11:00 +15°C° 0 mm 4 mps 727 mmHg 48%
    12:00 +17°C° 0 mm 4 mps 727 mmHg 45%
    13:00 +17°C° 0 mm 4 mps 727 mmHg 46%
    14:00 +17°C° 0 mm 4 mps 726 mmHg 48%
    15:00 +17°C° 0 mm 4 mps 726 mmHg 49%
    16:00 +14°C° 0 mm 3 mps 726 mmHg 57%
    17:00 +12°C° 0 mm 3 mps 726 mmHg 65%
    18:00 +9°C° 0 mm 2 mps 726 mmHg 73%
    19:00 +9°C° 0 mm 2 mps 726 mmHg 77%
    20:00 +8°C° 0 mm 2 mps 727 mmHg 80%
    21:00 +7°C° 0 mm 2 mps 727 mmHg 83%
    22:00 +8°C° 0 mm 1 mps 727 mmHg 84%
    23:00 +7°C° 0 mm 1 mps 727 mmHg 84%

    26 September, Wednesday

    Time Temperature Precipitation Wind Pressure Humidity
    00:00 +7°C° 0 mm 1 mps 727 mmHg 85%
    01:00 +7°C° 0 mm 1 mps 727 mmHg 85%
    02:00 +7°C° 0 mm 1 mps 727 mmHg 85%
    03:00 +7°C° 0 mm 1 mps 727 mmHg 84%
    04:00 +8°C° 0 mm 1 mps 727 mmHg 83%
    05:00 +8°C° 0 mm 1 mps 727 mmHg 81%
    06:00 +9°C° 0 mm 1 mps 727 mmHg 79%
    07:00 +12°C° 0 mm 1 mps 727 mmHg 70%
    08:00 +16°C° 0 mm 1 mps 728 mmHg 61%
    09:00 +18°C° 0 mm 0 mps 728 mmHg 51%
    10:00 +22°C° 0 mm 1 mps 728 mmHg 49%
    11:00 +23°C° 0 mm 1 mps 728 mmHg 46%
    12:00 +24°C° 0 mm 1 mps 728 mmHg 44%
    13:00 +24°C° 0 mm 1 mps 728 mmHg 46%
    14:00 +24°C° 0 mm 1 mps 727 mmHg 47%
    15:00 +23°C° 0 mm 1 mps 727 mmHg 49%
    16:00 +21°C° 0 mm 1 mps 727 mmHg 59%
    17:00 +18°C° 0 mm 1 mps 727 mmHg 69%
    18:00 +14°C° 0 mm 0 mps 727 mmHg 80%
    19:00 +14°C° 0 mm 1 mps 727 mmHg 81%
    20:00 +14°C° 0 mm 1 mps 727 mmHg 82%
    21:00 +13°C° 0 mm 1 mps 727 mmHg 83%
    22:00 +13°C° 0 mm 1 mps 727 mmHg 84%
    23:00 +13°C° 0 mm 1 mps 727 mmHg 84%

    27 September, Thursday

    Time Temperature Precipitation Wind Pressure Humidity
    00:00 +12°C° 0 mm 1 mps 727 mmHg 85%
    01:00 +12°C° 0 mm 1 mps 727 mmHg 84%
    02:00 +12°C° 0 mm 1 mps 726 mmHg 84%
    03:00 +12°C° 0 mm 1 mps 726 mmHg 84%
    04:00 +12°C° 0 mm 1 mps 726 mmHg 83%
    05:00 +12°C° 0 mm 1 mps 726 mmHg 82%
    06:00 +12°C° 0 mm 1 mps 726 mmHg 81%
    07:00 +15°C° 0 mm 1 mps 726 mmHg 71%
    08:00 +17°C° 0 mm 0 mps 726 mmHg 61%
    09:00 +21°C° 0 mm 0 mps 726 mmHg 52%
    10:00 +22°C° 0 mm 0 mps 726 mmHg 48%
    11:00 +25°C° 0 mm 1 mps 726 mmHg 44%
    12:00 +26°C° 0 mm 1 mps 726 mmHg 41%
    13:00 +26°C° 0 mm 1 mps 725 mmHg 43%
    14:00 +25°C° 0 mm 1 mps 724 mmHg 44%
    15:00 +25°C° 0 mm 1 mps 724 mmHg 46%
    16:00 +22°C° 0 mm 1 mps 724 mmHg 56%
    17:00 +20°C° 0 mm 1 mps 723 mmHg 66%
    18:00 +15°C° 0 mm 0 mps 723 mmHg 76%
    19:00 +15°C° 0 mm 1 mps 723 mmHg 77%
    20:00 +15°C° 0 mm 1 mps 723 mmHg 79%
    21:00 +14°C° 0 mm 1 mps 723 mmHg 81%
    22:00 +14°C° 0 mm 1 mps 723 mmHg 81%
    23:00 +13°C° 0 mm 1 mps 722 mmHg 81%

    28 September, Friday

    Time Temperature Precipitation Wind Pressure Humidity
    00:00 +13°C° 0 mm 1 mps 722 mmHg 81%
    01:00 +13°C° 0 mm 1 mps 722 mmHg 81%
    02:00 +12°C° 0 mm 1 mps 721 mmHg 80%
    03:00 +12°C° 0 mm 1 mps 721 mmHg 80%
    04:00 +12°C° 0 mm 1 mps 721 mmHg 79%
    05:00 +12°C° 0 mm 1 mps 721 mmHg 77%
    06:00 +11°C° 0 mm 0 mps 721 mmHg 76%
    07:00 +15°C° 0 mm 1 mps 721 mmHg 68%
    08:00 +19°C° 0 mm 1 mps 721 mmHg 60%
    09:00 +21°C° 0 mm 1 mps 721 mmHg 52%
    10:00 +22°C° 0 mm 1 mps 721 mmHg 49%
    11:00 +24°C° 0 mm 1 mps 721 mmHg 46%
    12:00 +25°C° 0 mm 2 mps 720 mmHg 43%
    13:00 +24°C° 0 mm 2 mps 720 mmHg 45%
    14:00 +24°C° 0 mm 2 mps 720 mmHg 47%
    15:00 +24°C° 0 mm 2 mps 719 mmHg 49%
    16:00 +21°C° 0 mm 1 mps 719 mmHg 59%
    17:00 +19°C° 0 mm 1 mps 719 mmHg 69%
    18:00 +15°C° 0 mm 1 mps 719 mmHg 79%
    19:00 +14°C° 0 mm 1 mps 719 mmHg 81%
    20:00 +14°C° 0 mm 1 mps 719 mmHg 83%
    21:00 +13°C° 0 mm 1 mps 720 mmHg 85%
    22:00 +13°C° 0 mm 1 mps 719 mmHg 85%
    23:00 +11°C° 0 mm 0 mps 719 mmHg 86%
    Show more